Tracking 18840 objects as of 17-November-2017
HD Live streaming from Space Station
objects crossing your sky now

COSMOS 407

Track COSMOS 407 now!
10-day predictions
COSMOS 407 is classified as:


NORAD ID: 5174
Int'l Code: 1971-035A
Perigee: 774.2 km
Apogee: 802.1 km
Inclination: 74.0 °
Period: 100.5 minutes
Semi major axis: 7159 km
RCS: 2.2662 m2 (large)
Launch date: April 23, 1971
Source: Commonwealth of Independent States (former USSR) (CIS)
Launch site: PLESETSK MISSILE AND SPACE COMPLEX (PKMTR)
aabbcc
Your satellite tracking list
Your tracking list is empty




NASA's NSSDC Master Catalog

Two Line Element Set (TLE):
1 05174U 71035A   17320.78087968  .00000021  00000-0  17223-4 0  9991
2 05174  74.0453  78.5847 0019523 305.9355  53.9985 14.33218239431655
Source of the keplerian elements: AFSPC